Location: ??????????
(44.2167°N, 135.5333°E)
Time: 14:08:22
(UTC+00:00)

Cosmos 1437 Rocket - Pass Details

Date: 15 June 2025
Orbit: 456 x 498 km, 81.2° (Epoch: 15 July)

Event Time Altitude Azimuth Distance (km) Brightness Sun altitude
Exits shadow 12:03:08 18° 146° (SE) 1,202 3.9 -11.5°
Maximum altitude 12:05:08 32° 94° (E) 829 3.4 -11.7°
Drops below altitude 10° 12:08:20 10° 30° (NNE) 1,638 5.5 -12.0°
Sets 12:10:35 0° 20° (NNE) 2,529 6.7 -12.3°
